[[{"header":{"parameterUnit":"m.s-1","parameterCategory":2,"la1":30.2992,"la2":30.254,"lo1":-89.0895,"lo2":-89.0443,"dy":0.0025,"dx":0.0025,"nx":19,"ny":19,"refTime":"2026-03-07T09:00:00:Z","depth":"0","parameterNumber":2,"parameterNumberName":"U-component_of_CURRENTS"},"data":[0,0,0,-0.2226,-0.2225,-0.2178,-0.2177,-0.2126,-0.2126,0,0,0,0,0,0,0,0,0,0,0,-0.2238,-0.2238,-0.2226,-0.2225,-0.2178,-0.2177,-0.2126,-0.2126,0,0,0,0,0,0,0,0,0,0,0,-0.2238,-0.2238,-0.2238,-0.2225,-0.2178,-0.2177,-0.2126,-0.2157,0,0,0,0,0,0,0,0,0,0,-0.2201,-0.2216,-0.2238,-0.2238,-0.2225,-0.2178,-0.2177,-0.2158,-0.2155,-0.2153,0,-0.2149,0,-0.2143,-0.2123,-0.2123,0,0,0,-0.2215,-0.2218,-0.2208,-0.2238,-0.2224,-0.2178,-0.2196,-0.2156,-0.2153,-0.2149,-0.2148,-0.2147,-0.2142,-0.2123,-0.2123,-0.2219,-0.2221,0,0,-0.2217,-0.2226,-0.221,-0.2206,-0.2217,-0.2198,-0.2195,-0.2154,-0.2151,-0.2148,-0.2145,-0.2141,-0.2123,-0.2123,-0.2218,-0.222,0,0,0,-0.2232,-0.2228,-0.2218,-0.2208,-0.2202,-0.2197,-0.2193,-0.2153,-0.215,-0.2145,-0.2141,-0.2123,-0.2122,-0.2217,-0.2219,-0.2287,0,0,0,-0.2233,-0.2237,-0.2219,-0.2224,-0.2203,-0.2176,-0.2193,-0.2153,-0.2148,-0.2141,-0.2123,-0.2122,-0.2215,-0.2218,-0.2282,-0.2229,0,0,0,-0.224,-0.2238,-0.2234,-0.2224,-0.2209,-0.2177,-0.2171,-0.2151,-0.2146,-0.2123,-0.2122,-0.2214,-0.2217,-0.2278,-0.2225,-0.2118,0,0,0,-0.2248,-0.2288,-0.2235,-0.2288,-0.221,-0.2255,-0.2171,-0.2182,-0.2172,-0.2123,-0.2215,-0.2219,-0.2276,-0.2222,-0.2118,-0.1933,-0.192,0,0,-0.2317,-0.2296,-0.2335,-0.2287,-0.2356,-0.226,-0.2331,-0.2266,-0.2221,-0.2224,-0.2225,-0.2284,-0.2225,-0.2118,-0.2114,-0.2094,0,0,0,-0.2371,-0.2394,-0.2408,-0.2428,-0.2427,-0.2401,-0.2364,-0.233,-0.2314,-0.2231,-0.2328,-0.2288,-0.2217,-0.2109,-0.2095,-0.2016,-0.2233,-0.2233,-0.2232,-0.2458,-0.2473,-0.2527,-0.2539,-0.2552,-0.2515,-0.2482,-0.2433,-0.2416,-0.2425,-0.2381,-0.2389,-0.2285,-0.227,-0.2197,-0.2467,-0.2467,-0.2468,-0.2468,-0.2549,-0.2555,-0.258,-0.2631,-0.2606,-0.2634,-0.2577,-0.254,-0.2456,-0.2476,-0.2405,-0.2235,-0.2257,-0.2185,-0.2473,-0.2472,-0.2471,-0.2471,-0.247,-0.2575,-0.2563,-0.2609,-0.2616,-0.2627,-0.2616,-0.251,-0.2496,-0.246,-0.242,-0.2203,-0.2199,-0.2086,-0.2372,-0.2371,-0.2371,-0.237,-0.237,-0.2369,-0.252,-0.2566,-0.2526,-0.2555,-0.251,-0.246,-0.2413,-0.2346,-0.2236,-0.2194,-0.2191,-0.2085,-0.2355,-0.2302,-0.236,-0.2362,-0.2363,-0.2364,-0.2364,-0.2441,-0.243,-0.2366,-0.2315,-0.2213,-0.2078,-0.2126,-0.1995,-0.1933,-0.1852,-0.1813,-0.2046,-0.1957,-0.1967,-0.1904,-0.1854,-0.1854,-0.1854,-0.1854,-0.2312,-0.2328,-0.2148,-0.2012,-0.1887,-0.1864,-0.1636,-0.1605,-0.1565,-0.1493,-0.1567,-0.1604,-0.1628,-0.1524,-0.1544,-0.1475,-0.1317,-0.1317,-0.1316,-0.2159,-0.2143,-0.195,-0.186,-0.1715,-0.1604,-0.1382,-0.1258,-0.1233,-0.1296,-0.1497,-0.152,-0.1589,-0.1632,-0.1484,-0.1519,-0.1411,0,0]},{"header":{"parameterUnit":"m.s-1","parameterCategory":2,"la1":30.2992,"la2":30.254,"lo1":-89.0895,"lo2":-89.0443,"dy":0.0025,"dx":0.0025,"nx":19,"ny":19,"refTime":"2026-03-07T09:00:00:Z","depth":"0","parameterNumber":3,"parameterNumberName":"V-component_of_CURRENTS"},"data":[0,0,0,-0.0047,-0.0047,-0.0002,-0.0002,0.0123,0.0124,0,0,0,0,0,0,0,0,0,0,0,-0.0058,-0.0058,-0.0047,-0.0047,-0.0002,-0.0002,0.0123,0.0124,0,0,0,0,0,0,0,0,0,0,0,-0.0058,-0.0058,-0.0058,-0.0047,-0.0003,-0.0002,0.0123,0.0078,0,0,0,0,0,0,0,0,0,0,0.0029,0.0006,-0.0058,-0.0058,-0.0047,-0.0003,-0.0002,0.0075,0.0081,0.0115,0,0.0107,0,0.0108,0.0132,0.0133,0,0,0,-0.0023,0.0001,0.0002,-0.0058,-0.0047,-0.0003,-0.0016,0.0078,0.0084,0.0123,0.0109,0.0113,0.011,0.0133,0.0133,0.0186,0.0186,0,0,-0.0026,-0.0032,-0.0003,0.0005,-0.0053,-0.0017,-0.0015,0.0081,0.0089,0.0109,0.0116,0.0112,0.0134,0.0135,0.0186,0.0186,0,0,0,-0.0049,-0.0034,-0.0036,0.0001,-0.0003,-0.0017,-0.0013,0.0085,0.008,0.0117,0.0114,0.0134,0.0136,0.0187,0.0186,0.0111,0,0,0,-0.0049,-0.0049,-0.0038,-0.0038,-0.0006,0.0033,-0.0012,0.0074,0.0084,0.0113,0.0134,0.0137,0.0187,0.0186,0.0114,0.0074,0,0,0,-0.0057,-0.0049,-0.0053,-0.0039,-0.0032,0.0031,0.0033,0.0076,0.0082,0.0133,0.0137,0.0187,0.0186,0.0117,0.0079,0.0088,0,0,0,-0.0051,-0.0097,-0.0053,-0.0098,-0.0033,-0.0039,0.0033,0.0052,0.0086,0.0135,0.0187,0.0186,0.0117,0.0082,0.0091,0.0214,0.0214,0,0,-0.0117,-0.0105,-0.0134,-0.0096,-0.0132,-0.0043,-0.0046,0.0034,0.0092,0.0165,0.0166,0.0113,0.0079,0.0089,0.0173,0.0174,0,0,0,-0.0161,-0.0188,-0.0189,-0.0195,-0.0167,-0.0122,-0.0042,0.0007,0.0074,0.0105,0.012,0.0101,0.011,0.0189,0.0189,0.0361,0.0183,0.0183,0.0183,-0.0257,-0.025,-0.0296,-0.028,-0.0258,-0.017,-0.0122,-0.0036,0.0026,0.0043,0.0045,0.0006,0.0088,0.009,0.0264,0.0056,0.0055,0.0055,0.0055,-0.0387,-0.0426,-0.038,-0.0426,-0.0346,-0.0322,-0.0191,-0.0131,-0.0048,-0.0006,0.0007,0.0111,0.0087,0.0273,0.005,0.0051,0.0052,0.0052,0.0053,-0.0476,-0.0493,-0.0506,-0.0536,-0.0506,-0.0414,-0.0353,-0.0254,-0.0132,-0.0116,0.0017,0.002,0.0183,-0.0099,-0.0099,-0.01,-0.01,-0.01,-0.01,-0.0563,-0.0575,-0.0629,-0.0647,-0.0641,-0.0595,-0.0455,-0.036,-0.0175,-0.0054,-0.0051,0.0201,-0.004,-0.0035,-0.0102,-0.0102,-0.0102,-0.0101,-0.0101,-0.0684,-0.0673,-0.0758,-0.0776,-0.0767,-0.0706,-0.0583,-0.0309,-0.0196,-0.0065,0.0271,0.001,0.0055,0.0057,0.0066,0.0029,0.0029,0.0029,0.0029,-0.0744,-0.0755,-0.0831,-0.0861,-0.0858,-0.0746,-0.0533,-0.0227,0.0183,0.0398,0.0417,0.0499,0.0486,0.056,0.0551,0.0572,0.0664,0.0665,0.0666,-0.0803,-0.0818,-0.0866,-0.089,-0.0882,-0.0754,-0.0499,-0.0056,0.0516,0.0704,0.0627,0.06,0.0729,0.0695,0.082,0.0793,0.083,0,0]}],[{"header":{"parameterUnit":"m.s-1","parameterCategory":2,"la1":30.2992,"la2":30.254,"lo1":-89.0895,"lo2":-89.0443,"dy":0.0025,"dx":0.0025,"nx":19,"ny":19,"refTime":"2026-03-07T09:00:00:Z","depth":"2","parameterNumber":2,"parameterNumberName":"U-component_of_CURRENTS"},"data":[0,0,0,-0.1845,-0.1849,-0.2055,-0.2056,-0.2291,-0.2293,0,0,0,0,0,0,0,0,0,0,0,-0.1798,-0.1799,-0.1845,-0.1849,-0.2055,-0.2056,-0.2291,-0.2293,0,0,0,0,0,0,0,0,0,0,0,-0.1797,-0.1799,-0.1801,-0.185,-0.2054,-0.2056,-0.229,-0.2148,0,0,0,0,0,0,0,0,0,0,-0.1954,-0.1879,-0.1798,-0.1801,-0.1851,-0.2054,-0.2056,-0.2141,-0.2156,-0.2182,0,-0.2223,0,-0.2242,-0.2305,-0.2306,0,0,0,-0.1873,-0.1866,-0.194,-0.1801,-0.1852,-0.2054,-0.1969,-0.215,-0.2167,-0.2202,-0.2226,-0.2234,-0.2246,-0.2307,-0.2308,-0.2488,-0.2489,0,0,-0.1862,-0.1818,-0.1928,-0.1951,-0.1917,-0.1962,-0.1975,-0.2161,-0.2171,-0.2227,-0.224,-0.225,-0.2308,-0.2309,-0.2488,-0.2488,0,0,0,-0.1813,-0.1809,-0.188,-0.1942,-0.197,-0.1967,-0.1982,-0.2164,-0.2193,-0.2242,-0.2253,-0.2309,-0.2311,-0.2487,-0.2488,-0.2414,0,0,0,-0.1807,-0.1779,-0.1874,-0.1847,-0.1967,-0.2065,-0.198,-0.2182,-0.2202,-0.2252,-0.2309,-0.2313,-0.2486,-0.2488,-0.2415,-0.239,0,0,0,-0.1786,-0.1775,-0.1808,-0.1845,-0.1923,-0.2063,-0.2104,-0.2187,-0.2207,-0.2306,-0.2314,-0.2486,-0.2487,-0.2415,-0.2392,-0.2291,0,0,0,-0.1723,-0.1791,-0.1807,-0.1881,-0.1921,-0.2063,-0.2103,-0.2244,-0.2338,-0.231,-0.2487,-0.2488,-0.2416,-0.2393,-0.2293,-0.2142,-0.2118,0,0,-0.1776,-0.1795,-0.1841,-0.1861,-0.1995,-0.2036,-0.2138,-0.2292,-0.2355,-0.2426,-0.2431,-0.2415,-0.2392,-0.2291,-0.2216,-0.2189,0,0,0,-0.1836,-0.1901,-0.1943,-0.2015,-0.2087,-0.2146,-0.2267,-0.2291,-0.2389,-0.241,-0.2462,-0.2451,-0.2388,-0.2305,-0.2285,-0.2494,-0.2494,-0.2494,-0.2493,-0.1914,-0.195,-0.202,-0.2092,-0.2169,-0.2248,-0.228,-0.2335,-0.2402,-0.243,-0.2425,-0.2351,-0.2266,-0.2248,-0.2462,-0.2462,-0.2461,-0.2461,-0.2461,-0.1978,-0.1974,-0.205,-0.2136,-0.2172,-0.2255,-0.2296,-0.2324,-0.231,-0.2391,-0.2331,-0.2277,-0.222,-0.2456,-0.2457,-0.2458,-0.2458,-0.2459,-0.2459,-0.1975,-0.1948,-0.2018,-0.2072,-0.2146,-0.2227,-0.2199,-0.2239,-0.2263,-0.2229,-0.2117,-0.2117,-0.225,-0.2193,-0.2193,-0.2192,-0.2192,-0.2191,-0.2191,-0.1841,-0.1901,-0.1914,-0.2004,-0.2035,-0.2076,-0.2119,-0.2093,-0.2046,-0.2037,-0.2035,-0.2259,-0.2268,-0.2236,-0.2183,-0.2184,-0.2185,-0.2186,-0.2187,-0.1731,-0.1763,-0.1769,-0.1795,-0.1835,-0.1772,-0.1868,-0.1798,-0.1774,-0.1714,-0.1893,-0.1903,-0.1899,-0.1915,-0.1877,-0.1733,-0.1733,-0.1733,-0.1733,-0.1616,-0.1641,-0.1593,-0.1579,-0.158,-0.1609,-0.145,-0.1428,-0.1489,-0.1484,-0.1495,-0.1533,-0.1556,-0.1537,-0.1563,-0.1519,-0.1282,-0.1281,-0.1281,-0.1488,-0.1502,-0.1424,-0.1449,-0.145,-0.1402,-0.1214,-0.1063,-0.109,-0.1268,-0.1465,-0.1693,-0.1783,-0.1805,-0.181,-0.1838,-0.1783,0,0]},{"header":{"parameterUnit":"m.s-1","parameterCategory":2,"la1":30.2992,"la2":30.254,"lo1":-89.0895,"lo2":-89.0443,"dy":0.0025,"dx":0.0025,"nx":19,"ny":19,"refTime":"2026-03-07T09:00:00:Z","depth":"2","parameterNumber":3,"parameterNumberName":"V-component_of_CURRENTS"},"data":[0,0,0,-0.0497,-0.0497,-0.0446,-0.0445,-0.0305,-0.0304,0,0,0,0,0,0,0,0,0,0,0,-0.0506,-0.0506,-0.0497,-0.0497,-0.0446,-0.0445,-0.0306,-0.0304,0,0,0,0,0,0,0,0,0,0,0,-0.0506,-0.0506,-0.0506,-0.0496,-0.0446,-0.0445,-0.0306,-0.0357,0,0,0,0,0,0,0,0,0,0,-0.0413,-0.0442,-0.0506,-0.0506,-0.0496,-0.0446,-0.0445,-0.036,-0.0353,-0.0315,0,-0.032,0,-0.0322,-0.0295,-0.0295,0,0,0,-0.0471,-0.0447,-0.0439,-0.0506,-0.0496,-0.0446,-0.0461,-0.0356,-0.0349,-0.0307,-0.0319,-0.0314,-0.032,-0.0295,-0.0294,-0.0144,-0.0143,0,0,-0.0474,-0.0485,-0.0445,-0.0436,-0.0499,-0.0463,-0.046,-0.0353,-0.0347,-0.0318,-0.0311,-0.0318,-0.0294,-0.0293,-0.0145,-0.0144,0,0,0,-0.0499,-0.0487,-0.0482,-0.0441,-0.0445,-0.0462,-0.0459,-0.0351,-0.0352,-0.031,-0.0316,-0.0293,-0.0291,-0.0145,-0.0144,-0.0242,0,0,0,-0.0499,-0.0503,-0.0484,-0.0487,-0.0448,-0.0409,-0.046,-0.0359,-0.0348,-0.0317,-0.0293,-0.029,-0.0146,-0.0145,-0.0241,-0.0277,0,0,0,-0.0506,-0.0504,-0.0505,-0.0489,-0.048,-0.0411,-0.0404,-0.0356,-0.0352,-0.0295,-0.029,-0.0147,-0.0145,-0.0241,-0.0274,-0.0244,0,0,0,-0.0508,-0.0532,-0.0505,-0.0536,-0.0481,-0.0464,-0.0405,-0.0373,-0.0331,-0.0292,-0.0146,-0.0144,-0.024,-0.0273,-0.0244,-0.0195,-0.0194,0,0,-0.0544,-0.0536,-0.0558,-0.0534,-0.0545,-0.0468,-0.0445,-0.0365,-0.0284,-0.0173,-0.017,-0.0242,-0.0274,-0.0244,-0.0103,-0.0105,0,0,0,-0.0575,-0.0591,-0.0587,-0.0592,-0.0558,-0.0501,-0.0425,-0.0365,-0.0258,-0.0257,-0.0181,-0.0197,-0.0176,-0.0143,-0.0144,-0.0137,-0.0137,-0.0137,-0.0137,-0.0623,-0.0626,-0.0652,-0.0638,-0.0606,-0.0516,-0.0458,-0.0346,-0.0284,-0.0233,-0.0234,-0.0216,-0.0181,-0.0181,-0.0184,-0.0185,-0.0185,-0.0185,-0.0186,-0.0691,-0.0721,-0.0694,-0.0718,-0.0648,-0.0606,-0.0469,-0.0411,-0.0292,-0.0246,-0.0221,-0.0194,-0.0189,-0.0192,-0.0191,-0.019,-0.0189,-0.0189,-0.0188,-0.0756,-0.0764,-0.0776,-0.0781,-0.0743,-0.0653,-0.0579,-0.0477,-0.0361,-0.0342,-0.0234,-0.0231,-0.0286,-0.0311,-0.0311,-0.0311,-0.0311,-0.0311,-0.0311,-0.0803,-0.0813,-0.0843,-0.0836,-0.083,-0.0771,-0.0634,-0.0548,-0.0394,-0.0306,-0.0304,-0.0257,-0.0253,-0.0288,-0.0311,-0.0311,-0.0311,-0.0311,-0.0311,-0.0867,-0.0871,-0.0915,-0.0926,-0.0895,-0.0837,-0.0721,-0.0514,-0.0409,-0.0321,-0.026,-0.0261,-0.0211,-0.0208,-0.0239,-0.0247,-0.0247,-0.0247,-0.0247,-0.0901,-0.0909,-0.0952,-0.0967,-0.0947,-0.0858,-0.0703,-0.0488,-0.0298,-0.021,-0.0212,-0.0196,-0.0199,-0.0147,-0.0145,-0.0173,-0.0165,-0.0165,-0.0165,-0.0915,-0.0931,-0.0961,-0.0981,-0.0963,-0.0859,-0.0694,-0.0394,-0.0138,-0.0165,-0.0225,-0.0236,-0.0218,-0.0221,-0.014,-0.0138,-0.0183,0,0]}],[{"header":{"parameterUnit":"m.s-1","parameterCategory":2,"la1":30.2992,"la2":30.254,"lo1":-89.0895,"lo2":-89.0443,"dy":0.0025,"dx":0.0025,"nx":19,"ny":19,"refTime":"2026-03-07T09:00:00:Z","depth":"4","parameterNumber":2,"parameterNumberName":"U-component_of_CURRENTS"},"data":[0,0,0,-0.1059,-0.1061,-0.1165,-0.1165,-0.1235,-0.1236,0,0,0,0,0,0,0,0,0,0,0,-0.1023,-0.1024,-0.1058,-0.1061,-0.1164,-0.1165,-0.1235,-0.1236,0,0,0,0,0,0,0,0,0,0,0,-0.1023,-0.1024,-0.1025,-0.1062,-0.1164,-0.1165,-0.1235,-0.1172,0,0,0,0,0,0,0,0,0,0,-0.1079,-0.1064,-0.1023,-0.1025,-0.1062,-0.1164,-0.1165,-0.1169,-0.1176,-0.1171,0,-0.1194,0,-0.1217,-0.1239,-0.1239,0,0,0,-0.1059,-0.1059,-0.1079,-0.1025,-0.1063,-0.1164,-0.1117,-0.1173,-0.118,-0.1179,-0.1195,-0.1198,-0.1218,-0.1239,-0.124,-0.1315,-0.1315,0,0,-0.1053,-0.1047,-0.1074,-0.1084,-0.1098,-0.1114,-0.112,-0.1178,-0.1192,-0.1195,-0.12,-0.1219,-0.124,-0.124,-0.1315,-0.1315,0,0,0,-0.1038,-0.1043,-0.1064,-0.108,-0.1104,-0.1117,-0.1125,-0.1189,-0.1195,-0.1201,-0.122,-0.124,-0.1241,-0.1314,-0.1315,-0.136,0,0,0,-0.1035,-0.1034,-0.1061,-0.1059,-0.1104,-0.1159,-0.1134,-0.1191,-0.1198,-0.1219,-0.124,-0.1241,-0.1314,-0.1314,-0.1358,-0.1367,0,0,0,-0.1017,-0.1033,-0.1045,-0.1058,-0.1103,-0.1159,-0.1168,-0.1193,-0.1209,-0.1239,-0.1241,-0.1313,-0.1314,-0.1356,-0.1364,-0.1402,0,0,0,-0.1005,-0.1025,-0.1046,-0.1078,-0.1103,-0.1163,-0.1168,-0.1223,-0.1253,-0.124,-0.1314,-0.1315,-0.1355,-0.1362,-0.14,-0.118,0,0,0,-0.1016,-0.1027,-0.1043,-0.1064,-0.1115,-0.1148,-0.1209,-0.1252,-0.1264,-0.1288,-0.1291,-0.1359,-0.1364,-0.1401,-0.1243,0,0,0,0,-0.1037,-0.1042,-0.1066,-0.1102,-0.1154,-0.121,-0.125,-0.1282,-0.1337,-0.1288,-0.1367,-0.1368,-0.1391,-0.1257,-0.132,-0.132,-0.1319,-0.1319,-0.1319,-0.102,-0.1045,-0.1083,-0.1121,-0.1172,-0.1254,-0.1308,-0.1355,-0.1359,-0.1399,-0.1412,-0.1479,-0.134,-0.1425,-0.1425,-0.1425,-0.1426,-0.1426,-0.1426,-0.1025,-0.1032,-0.1095,-0.1146,-0.1216,-0.1282,-0.137,-0.1401,-0.1475,-0.1461,-0.1481,-0.1322,-0.1431,-0.143,-0.1429,-0.1428,-0.1428,-0.1428,-0.1427,-0.0992,-0.0998,-0.106,-0.1144,-0.124,-0.1325,-0.141,-0.1482,-0.1516,-0.1547,-0.1411,-0.1512,-0.1501,-0.1568,-0.1568,-0.1569,-0.1569,-0.1569,-0.1569,-0.0931,-0.0987,-0.1036,-0.1142,-0.1209,-0.1319,-0.1448,-0.1479,-0.1534,-0.1434,-0.1566,-0.1527,-0.1522,-0.1509,-0.1572,-0.1572,-0.1571,-0.1571,-0.1571,-0.0844,-0.09,-0.0957,-0.1025,-0.1171,-0.1242,-0.1395,-0.1391,-0.141,-0.1355,-0.1372,-0.1381,-0.1344,-0.1344,-0.1323,-0.1334,-0.1331,-0.1328,0,-0.0774,-0.0808,-0.0878,-0.0958,-0.104,-0.118,-0.1154,-0.121,-0.1242,-0.1194,-0.1414,-0.1435,-0.1439,-0.1398,-0.1394,-0.1369,0,0,0,-0.0712,-0.0749,-0.0768,-0.0877,-0.0966,-0.1027,-0.1141,-0.1094,-0.1246,-0.1176,-0.1263,-0.128,-0.146,-0.1583,-0.1547,-0.1541,-0.1518,0,0]},{"header":{"parameterUnit":"m.s-1","parameterCategory":2,"la1":30.2992,"la2":30.254,"lo1":-89.0895,"lo2":-89.0443,"dy":0.0025,"dx":0.0025,"nx":19,"ny":19,"refTime":"2026-03-07T09:00:00:Z","depth":"4","parameterNumber":3,"parameterNumberName":"V-component_of_CURRENTS"},"data":[0,0,0,-0.0343,-0.0343,-0.033,-0.0329,-0.0297,-0.0297,0,0,0,0,0,0,0,0,0,0,0,-0.0343,-0.0343,-0.0343,-0.0343,-0.033,-0.0329,-0.0297,-0.0297,0,0,0,0,0,0,0,0,0,0,0,-0.0343,-0.0343,-0.0343,-0.0343,-0.033,-0.0329,-0.0297,-0.0308,0,0,0,0,0,0,0,0,0,0,-0.0321,-0.0333,-0.0343,-0.0343,-0.0343,-0.033,-0.0329,-0.0308,-0.0307,-0.0302,0,-0.0306,0,-0.0308,-0.0295,-0.0295,0,0,0,-0.033,-0.0334,-0.0329,-0.0343,-0.0343,-0.033,-0.0332,-0.0308,-0.0306,-0.0301,-0.0306,-0.0305,-0.0308,-0.0295,-0.0295,-0.0295,-0.0296,0,0,-0.0331,-0.034,-0.0331,-0.0329,-0.0348,-0.0333,-0.0332,-0.0307,-0.0309,-0.0306,-0.0304,-0.0307,-0.0295,-0.0295,-0.0295,-0.0295,0,0,0,-0.0342,-0.034,-0.0336,-0.033,-0.0333,-0.0333,-0.0332,-0.031,-0.0309,-0.0304,-0.0307,-0.0295,-0.0295,-0.0295,-0.0295,-0.0329,0,0,0,-0.0342,-0.0347,-0.0336,-0.0341,-0.0334,-0.0325,-0.0336,-0.031,-0.0308,-0.0307,-0.0295,-0.0294,-0.0295,-0.0295,-0.0328,-0.0338,0,0,0,-0.0342,-0.0347,-0.0348,-0.0342,-0.0342,-0.0326,-0.0322,-0.0309,-0.031,-0.0295,-0.0294,-0.0295,-0.0295,-0.0327,-0.0336,-0.0293,0,0,0,-0.0348,-0.0366,-0.0348,-0.0373,-0.0342,-0.0355,-0.0323,-0.0328,-0.032,-0.0295,-0.0295,-0.0295,-0.0327,-0.0335,-0.0293,-0.0294,0,0,0,-0.0375,-0.0369,-0.0385,-0.037,-0.0397,-0.0356,-0.0373,-0.0347,-0.0321,-0.0299,-0.0299,-0.0328,-0.0336,-0.0293,-0.0317,0,0,0,0,-0.0398,-0.0409,-0.0414,-0.0426,-0.0423,-0.0409,-0.0386,-0.0363,-0.0337,-0.032,-0.0327,-0.033,-0.0301,-0.0302,-0.0297,-0.0297,-0.0297,-0.0297,-0.0297,-0.043,-0.0437,-0.0468,-0.0473,-0.0474,-0.0449,-0.0427,-0.039,-0.0369,-0.0359,-0.0357,-0.0347,-0.0352,-0.0357,-0.0358,-0.0358,-0.0358,-0.0358,-0.0358,-0.0476,-0.0496,-0.0504,-0.0539,-0.0523,-0.0528,-0.0469,-0.044,-0.0382,-0.0379,-0.0349,-0.0339,-0.0361,-0.0361,-0.036,-0.036,-0.0359,-0.0359,-0.0359,-0.05,-0.051,-0.054,-0.0581,-0.0593,-0.0569,-0.0534,-0.048,-0.0413,-0.039,-0.0346,-0.0349,-0.0344,-0.0362,-0.0362,-0.0362,-0.0362,-0.0362,-0.0362,-0.0505,-0.0535,-0.058,-0.0617,-0.064,-0.063,-0.0561,-0.0503,-0.0425,-0.0374,-0.0386,-0.0347,-0.0347,-0.0342,-0.036,-0.036,-0.036,-0.036,-0.036,-0.0518,-0.0542,-0.0604,-0.0642,-0.0681,-0.0663,-0.0611,-0.0478,-0.0403,-0.0334,-0.0344,-0.0346,-0.032,-0.0319,-0.0313,-0.0322,-0.0322,-0.0322,0,-0.0518,-0.0537,-0.0619,-0.0674,-0.0692,-0.0676,-0.0582,-0.0499,-0.0391,-0.0394,-0.0399,-0.0418,-0.0416,-0.0394,-0.0394,-0.039,0,0,0,-0.0515,-0.0548,-0.06,-0.0673,-0.0698,-0.0605,-0.0549,-0.0498,-0.0427,-0.0341,-0.0323,-0.0323,-0.0375,-0.0354,-0.0315,-0.0315,-0.0304,0,0]}]]